This is the latest recevied weather packets stored in our database for station/object K5MGY. If no packets are shown the sender has not sent any weather packets the latest 10 day(s).
| Time | Temp. | Humidity | Pressure | Rain* | Wind** | Luminosity | Snow |
|---|---|---|---|---|---|---|---|
| 1788548375 | 36.11° C | 44% | 1037.4 hPa | 0 mm | - | 453 W/m² | - |
| 1788548071 | 36.11° C | 43% | 1037.5 hPa | 0 mm | - | 432 W/m² | - |
| 1788547765 | 35.56° C | 44% | 1037.5 hPa | 0 mm | - | 406 W/m² | - |
| 1788547465 | 35.56° C | 44% | 1037.6 hPa | 0 mm | - | 310 W/m² | - |
| 1788547160 | 35.56° C | 45% | 1037.7 hPa | 0 mm | - | 318 W/m² | - |
| 1788546855 | 35.56° C | 44% | 1038 hPa | 0 mm | - | 799 W/m² | - |
| 1788546552 | 35.56° C | 46% | 1037.7 hPa | 0 mm | - | 373 W/m² | - |
| 1788546252 | 35.56° C | 46% | 1037.8 hPa | 0 mm | - | 288 W/m² | - |
| 1788545947 | 35.56° C | 47% | 1038.1 hPa | 0 mm | - | 388 W/m² | - |
| 1788545642 | 35.56° C | 47% | 1038 hPa | 0 mm | - | 418 W/m² | - |
| 1788545337 | 36.11° C | 44% | 1038 hPa | 0 mm | - | 363 W/m² | - |
| 1788545032 | 36.67° C | 43% | 1038 hPa | 0 mm | - | 582 W/m² | - |
| 1788544731 | 36.11° C | 46% | 1038.2 hPa | 0 mm | - | 772 W/m² | - |
| 1788544431 | 36.11° C | 46% | 1038.4 hPa | 0 mm | - | 465 W/m² | - |
| 1788544130 | 36.67° C | 45% | 1038.3 hPa | 0 mm | - | 511 W/m² | - |
| 1788542343 | 35° C | 50% | 1038.8 hPa | 0 mm | - | 672 W/m² | - |
| 1788542038 | 35° C | 50% | 1038.8 hPa | 0 mm | - | 672 W/m² | - |
| 1788541734 | 35° C | 50% | 1038.6 hPa | 0 mm | - | 634 W/m² | - |
| 1788541429 | 34.44° C | 49% | 1038.8 hPa | 0 mm | - | 662 W/m² | - |
| 1788541124 | 35° C | 49% | 1038.7 hPa | 0 mm | - | 658 W/m² | - |
| 1788540823 | 35° C | 49% | 1038.8 hPa | 0 mm | - | 395 W/m² | - |
| 1788540519 | 35° C | 48% | 1039 hPa | 0 mm | - | 611 W/m² | - |
| 1788540218 | 34.44° C | 52% | 1038.7 hPa | 0 mm | - | 624 W/m² | - |
| 1788539915 | 34.44° C | 51% | 1039 hPa | 0 mm | - | 636 W/m² | - |
| 1788539615 | 34.44° C | 49% | 1038.9 hPa | 0 mm | - | 600 W/m² | - |
* Rain latest hour (hover to see other rain measurements)
** Current wind speed in m/s (hover to see current wind gust speed)